When you browse on this site, cookies collect data to enhance your experience and personalize the content and advertising you see.
Visit our Privacy Policy to learn more. By continuing to use the site, you agree to this use of cookies and data.
  • In Spain
  • List of Countries
  • For 7 days
  • Water Temperature
  • Satellite Maps
  • Weather Map
  • Weather Widgets
  • user-avatar
    Login

    Hourly Weather Delhi

    Today, 19 April, Friday

    Time Temperature Precipitation Wind Pressure Humidity
    00:00 +29°C° 0 mm 2 mps 738 mmHg 36%
    01:00 +28°C° 0 mm 2 mps 738 mmHg 38%
    02:00 +28°C° 0 mm 2 mps 737 mmHg 39%
    03:00 +27°C° 0 mm 2 mps 737 mmHg 40%
    04:00 +27°C° 0 mm 2 mps 737 mmHg 41%
    05:00 +26°C° 0 mm 2 mps 737 mmHg 42%
    06:00 +27°C° 0 mm 2 mps 737 mmHg 40%
    07:00 +28°C° 0 mm 2 mps 738 mmHg 38%
    08:00 +29°C° 0 mm 2 mps 738 mmHg 36%
    09:00 +30°C° 0 mm 2 mps 738 mmHg 32%
    10:00 +31°C° 0 mm 2 mps 738 mmHg 29%
    11:00 +34°C° 0 mm 2 mps 738 mmHg 26%
    12:00 +34°C° 0 mm 2 mps 738 mmHg 24%
    13:00 +35°C° 0 mm 3 mps 737 mmHg 23%
    14:00 +36°C° 0 mm 3 mps 736 mmHg 21%
    15:00 +36°C° 0 mm 3 mps 736 mmHg 21%
    16:00 +36°C° 0 mm 3 mps 736 mmHg 20%
    17:00 +36°C° 0 mm 3 mps 735 mmHg 20%
    18:00 +35°C° 0 mm 3 mps 735 mmHg 21%
    19:00 +34°C° 0 mm 3 mps 736 mmHg 22%
    20:00 +34°C° 0 mm 3 mps 736 mmHg 23%
    21:00 +33°C° 0 mm 3 mps 736 mmHg 25%
    22:00 +33°C° 0 mm 3 mps 736 mmHg 26%
    23:00 +31°C° 0 mm 3 mps 736 mmHg 27%

    Tomorrow, 20 April, Saturday

    Time Temperature Precipitation Wind Pressure Humidity
    00:00 +31°C° 0 mm 3 mps 735 mmHg 28%
    01:00 +30°C° 0 mm 3 mps 735 mmHg 29%
    02:00 +30°C° 0 mm 3 mps 735 mmHg 31%
    03:00 +29°C° 0 mm 3 mps 735 mmHg 32%
    04:00 +29°C° 0 mm 3 mps 734 mmHg 33%
    05:00 +28°C° 0 mm 2 mps 734 mmHg 34%
    06:00 +29°C° 0 mm 2 mps 735 mmHg 32%
    07:00 +30°C° 0 mm 2 mps 736 mmHg 30%
    08:00 +31°C° 0 mm 2 mps 736 mmHg 28%
    09:00 +33°C° 0 mm 1 mps 736 mmHg 25%
    10:00 +35°C° 0 mm 1 mps 736 mmHg 22%
    11:00 +36°C° 0 mm 1 mps 737 mmHg 19%
    12:00 +37°C° 0 mm 1 mps 736 mmHg 18%
    13:00 +38°C° 0 mm 2 mps 735 mmHg 17%
    14:00 +39°C° 0 mm 2 mps 735 mmHg 16%
    15:00 +39°C° 0 mm 2 mps 734 mmHg 16%
    16:00 +39°C° 0 mm 2 mps 734 mmHg 16%
    17:00 +39°C° 0 mm 3 mps 733 mmHg 15%
    18:00 +38°C° 0 mm 2 mps 734 mmHg 16%
    19:00 +37°C° 0 mm 2 mps 734 mmHg 16%
    20:00 +36°C° 0 mm 2 mps 734 mmHg 17%
    21:00 +35°C° 0 mm 2 mps 734 mmHg 18%
    22:00 +34°C° 0 mm 1 mps 735 mmHg 18%
    23:00 +33°C° 0 mm 1 mps 735 mmHg 19%

    Day after tomorrow, 21 April, Sunday

    Time Temperature Precipitation Wind Pressure Humidity
    00:00 +33°C° 0 mm 1 mps 734 mmHg 20%
    01:00 +32°C° 0 mm 1 mps 734 mmHg 21%
    02:00 +31°C° 0 mm 1 mps 733 mmHg 22%
    03:00 +31°C° 0 mm 1 mps 733 mmHg 23%
    04:00 +30°C° 0 mm 1 mps 733 mmHg 23%
    05:00 +30°C° 0 mm 1 mps 733 mmHg 24%
    06:00 +29°C° 0 mm 0 mps 734 mmHg 22%
    07:00 +30°C° 0 mm 0 mps 734 mmHg 21%
    08:00 +32°C° 0 mm 0 mps 735 mmHg 19%
    09:00 +35°C° 0 mm 1 mps 735 mmHg 18%
    10:00 +38°C° 0 mm 2 mps 735 mmHg 16%
    11:00 +40°C° 0 mm 3 mps 735 mmHg 14%
    12:00 +40°C° 0 mm 3 mps 734 mmHg 14%
    13:00 +42°C° 0 mm 3 mps 734 mmHg 13%
    14:00 +43°C° 0 mm 3 mps 733 mmHg 12%
    15:00 +43°C° 0 mm 4 mps 732 mmHg 12%
    16:00 +43°C° 0 mm 4 mps 732 mmHg 12%
    17:00 +43°C° 0 mm 4 mps 732 mmHg 12%
    18:00 +40°C° 0 mm 3 mps 732 mmHg 13%
    19:00 +39°C° 0 mm 2 mps 732 mmHg 13%
    20:00 +38°C° 0 mm 2 mps 733 mmHg 14%
    21:00 +37°C° 0 mm 2 mps 733 mmHg 15%
    22:00 +37°C° 0 mm 2 mps 733 mmHg 16%
    23:00 +36°C° 0 mm 2 mps 733 mmHg 17%

    22 April, Monday

    Time Temperature Precipitation Wind Pressure Humidity
    00:00 +34°C° 0 mm 1 mps 733 mmHg 18%
    01:00 +33°C° 0 mm 1 mps 732 mmHg 20%
    02:00 +33°C° 0 mm 1 mps 732 mmHg 22%
    03:00 +32°C° 0 mm 1 mps 732 mmHg 23%
    04:00 +32°C° 0 mm 1 mps 732 mmHg 23%
    05:00 +31°C° 0 mm 1 mps 733 mmHg 24%
    06:00 +32°C° 0 mm 1 mps 733 mmHg 22%
    07:00 +33°C° 0 mm 1 mps 734 mmHg 21%
    08:00 +35°C° 0 mm 1 mps 735 mmHg 19%
    09:00 +37°C° 0 mm 1 mps 735 mmHg 17%
    10:00 +40°C° 0 mm 1 mps 735 mmHg 16%
    11:00 +39°C° 0 mm 0 mps 735 mmHg 14%
    12:00 +43°C° 0 mm 2 mps 734 mmHg 13%
    13:00 +44°C° 0 mm 3 mps 734 mmHg 12%
    14:00 +46°C° 0 mm 5 mps 733 mmHg 11%
    15:00 +46°C° 0 mm 5 mps 733 mmHg 11%
    16:00 +45°C° 0 mm 5 mps 733 mmHg 11%
    17:00 +45°C° 0 mm 5 mps 732 mmHg 11%
    18:00 +43°C° 0 mm 4 mps 733 mmHg 12%
    19:00 +42°C° 0 mm 4 mps 733 mmHg 13%
    20:00 +40°C° 0 mm 3 mps 733 mmHg 14%
    21:00 +39°C° 0 mm 3 mps 733 mmHg 15%
    22:00 +38°C° 0 mm 3 mps 733 mmHg 16%
    23:00 +37°C° 0 mm 2 mps 733 mmHg 16%

    23 April, Tuesday

    Time Temperature Precipitation Wind Pressure Humidity
    00:00 +36°C° 0 mm 2 mps 733 mmHg 17%
    01:00 +36°C° 0 mm 2 mps 733 mmHg 18%
    02:00 +34°C° 0 mm 1 mps 732 mmHg 19%
    03:00 +33°C° 0 mm 1 mps 733 mmHg 20%
    04:00 +33°C° 0 mm 1 mps 733 mmHg 20%
    05:00 +32°C° 0 mm 1 mps 733 mmHg 21%
    06:00 +34°C° 0 mm 1 mps 734 mmHg 20%
    07:00 +35°C° 0 mm 1 mps 735 mmHg 19%
    08:00 +37°C° 0 mm 2 mps 735 mmHg 18%
    09:00 +39°C° 0 mm 2 mps 735 mmHg 16%
    10:00 +41°C° 0 mm 2 mps 735 mmHg 14%
    11:00 +43°C° 0 mm 3 mps 735 mmHg 13%
    12:00 +44°C° 0 mm 3 mps 735 mmHg 12%
    13:00 +45°C° 0 mm 4 mps 734 mmHg 11%
    14:00 +47°C° 0 mm 5 mps 733 mmHg 10%
    15:00 +47°C° 0 mm 5 mps 733 mmHg 10%
    16:00 +47°C° 0 mm 4 mps 733 mmHg 10%
    17:00 +45°C° 0 mm 4 mps 733 mmHg 11%
    18:00 +44°C° 0 mm 3 mps 733 mmHg 11%
    19:00 +42°C° 0 mm 2 mps 733 mmHg 12%
    20:00 +41°C° 0 mm 1 mps 733 mmHg 13%
    21:00 +40°C° 0 mm 1 mps 733 mmHg 14%
    22:00 +39°C° 0 mm 1 mps 734 mmHg 15%
    23:00 +37°C° 0 mm 1 mps 734 mmHg 15%

    24 April, Wednesday

    Time Temperature Precipitation Wind Pressure Humidity
    00:00 +36°C° 0 mm 1 mps 733 mmHg 16%
    01:00 +36°C° 0 mm 1 mps 733 mmHg 17%
    02:00 +35°C° 0 mm 1 mps 733 mmHg 17%
    03:00 +34°C° 0 mm 1 mps 733 mmHg 18%
    04:00 +34°C° 0 mm 1 mps 733 mmHg 18%
    05:00 +34°C° 0 mm 1 mps 734 mmHg 19%
    06:00 +35°C° 0 mm 1 mps 734 mmHg 18%
    07:00 +36°C° 0 mm 1 mps 735 mmHg 18%
    08:00 +38°C° 0 mm 2 mps 736 mmHg 17%
    09:00 +40°C° 0 mm 2 mps 736 mmHg 15%
    10:00 +42°C° 0 mm 2 mps 736 mmHg 13%
    11:00 +45°C° 0 mm 2 mps 736 mmHg 11%
    12:00 +45°C° 0 mm 2 mps 735 mmHg 10%
    13:00 +46°C° 0 mm 3 mps 735 mmHg 9%
    14:00 +48°C° 0 mm 4 mps 734 mmHg 8%
    15:00 +48°C° 0 mm 4 mps 734 mmHg 8%
    16:00 +48°C° 0 mm 4 mps 733 mmHg 8%
    17:00 +47°C° 0 mm 4 mps 733 mmHg 8%
    18:00 +45°C° 0 mm 4 mps 733 mmHg 9%
    19:00 +44°C° 0 mm 4 mps 734 mmHg 10%
    20:00 +43°C° 0 mm 3 mps 734 mmHg 11%
    21:00 +42°C° 0 mm 3 mps 734 mmHg 12%
    22:00 +40°C° 0 mm 3 mps 734 mmHg 13%
    23:00 +39°C° 0 mm 2 mps 734 mmHg 14%
    Show more